Regional Weather Roundup
Issued by NWS

Home | Current Version | Previous Version | Graphics & Text | Print | Product List | Glossary On
Versions: 1 2 3 4 5 6 7 8 9 10 11 12 13 14 15 16 17 18 19 20 21 22 23 24 25 26 27 28 29 30 31 32 33 34 35 36 37 38 39 40 41 42 43 44 45 46 47 48 49 50
000
ASUS45 KPSR 241810
RWRAZ

ARIZONA REGIONAL HOURLY WEATHER ROUNDUP
NATIONAL WEATHER SERVICE TUCSON AZ
1100 AM MST WED MAY 24 2017

NOTE: FAIR INDICATES FEW OR NO CLOUDS BELOW 12,000 FEET WITH NO
SIGNIFICANT WEATHER AND/OR OBSTRUCTIONS TO VISIBILITY.

AZZ001>003-036-241900-
NORTHWEST ARIZONA

CITY           SKY/WX    TMP DP  RH WIND       PRES   REMARKS
BULLHEAD CITY  SUNNY     99  27   8 SW8       29.67F
KINGMAN        SUNNY     94  29  10 SW16G26   29.86F
6HR MIN TEMP:  73; 6HR MAX TEMP:  94;

$$

AZZ004>008-015-016-018-241900-
NORTH CENTRAL ARIZONA

CITY           SKY/WX    TMP DP  RH WIND       PRES   REMARKS
GRAND CANYON   SUNNY     78  24  13 SW15G28   30.08F
6HR MIN TEMP:  32; 6HR MAX TEMP:  78;

PRESCOTT       SUNNY     85  22  10 SW14G21   30.00F
6HR MIN TEMP:  51; 6HR MAX TEMP:  85;

FLAGSTAFF      SUNNY     75  21  13 W14G25    30.11F
6HR MIN TEMP:  35; 6HR MAX TEMP:  76;

PAYSON         CLEAR     82  23  11 SW8       30.06S
PAGE           SUNNY     80  34  19 VRB5      29.88F
6HR MIN TEMP:  59; 6HR MAX TEMP:  81;

$$

AZZ009>014-017-241900-
NORTHEAST ARIZONA

CITY           SKY/WX    TMP DP  RH WIND       PRES   REMARKS
WINSLOW        SUNNY     88  21   8 VRB6      29.97F
6HR MIN TEMP:  45; 6HR MAX TEMP:  88;

SAINT JOHNS    SUNNY     83  17   8 NW13G22   30.02F
6HR MIN TEMP:  45; 6HR MAX TEMP:  83;

WINDOW ROCK    SUNNY     76  27  16 VRB7G21   30.08F
6HR MIN TEMP:  34; 6HR MAX TEMP:  78;

SHOW LOW       SUNNY     75  21  13 SW14G21   30.10F
$$

AZZ023-241900-
GREATER PHOENIX AREA

CITY           SKY/WX    TMP DP  RH WIND       PRES   REMARKS
PHOENIX        MOSUNNY   96  33  11 SE8       29.74F
6HR MIN TEMP:  75; 6HR MAX TEMP:  96;

BUCKEYE        CLEAR     95  32  11 E9        29.75F
GLENDALE       MOSUNNY   97  32  10 NE6       29.76F
LUKE AFB       SUNNY     97  30   9 SE3       29.74F
                                      6HR PCP: TRACE;

DEER VALLEY    SUNNY     93  28  10 E6        29.77F
6HR MIN TEMP:  69; 6HR MAX TEMP:  94;

SCOTTSDALE     SUNNY     94  28   9 SE7       29.79F
6HR MIN TEMP:  72; 6HR MAX TEMP:  94;

MESA-FALCON    SUNNY     93  34  12 S8        29.78F
MESA-GATEWAY   SUNNY     93  30  10 SE7       29.78F
CHANDLER       SUNNY     95  28   9 VRB6      29.77F
$$

AZZ027-028-241900-
SOUTHWEST MARICOPA COUNTY AND PINAL COUNTY

CITY           SKY/WX    TMP DP  RH WIND       PRES   REMARKS
CASA GRANDE    SUNNY     96  33  11 NE5       29.78F
6HR MIN TEMP:  67; 6HR MAX TEMP:  97;

$$

AZZ503-504-507>509-241900-
SOUTHEAST ARIZONA

CITY           SKY/WX    TMP DP  RH WIND       PRES   REMARKS
TUCSON         SUNNY     95  25   8 VRB6      29.89F
6HR MIN TEMP:  68; 6HR MAX TEMP:  95;

DAVIS-MONTHAN  SUNNY     93  24   8 NW5       29.88F
6HR MIN TEMP:  65; 6HR MAX TEMP:  93;

RYAN FIELD     CLEAR     95  25   8 W7        29.87
NOGALES        SUNNY     91  17   6 CALM      29.97F
6HR MIN TEMP:  56; 6HR MAX TEMP:  92;

SIERRA VISTA   SUNNY     89  16   7 NW9G17    30.02F
6HR MIN TEMP:  67; 6HR MAX TEMP:  89;

DOUGLAS        SUNNY     90  17   7 SW12      29.98F
6HR MIN TEMP:  50; 6HR MAX TEMP:  90;

SAFFORD        SUNNY     91  23   8 MISG      29.89F
6HR MIN TEMP:  60; 6HR MAX TEMP:  91;

$$

AZZ020-021-025-026-031-241900-
SOUTHWEST ARIZONA

CITY           SKY/WX    TMP DP  RH WIND       PRES   REMARKS
YUMA           MOSUNNY   98  26   7 W10       29.70S
6HR MIN TEMP:  73; 6HR MAX TEMP:  99;

$$

CAZ031-033-041-043-047-048-061-241900-
SOUTHERN CALIFORNIA

CITY           SKY/WX    TMP DP  RH WIND       PRES   REMARKS
DOWNTOWN L.A.  MOSUNNY   69  56  62 N3        29.86F HAZE
6HR MIN TEMP:  59; 6HR MAX TEMP:  69;

L.A. AIRPORT   PTSUNNY   63  56  78 S5        29.89F
6HR MIN TEMP:  58; 6HR MAX TEMP:  63;

SAN DIEGO      PTSUNNY   67  55  65 NW6       29.91F
6HR MIN TEMP:  61; 6HR MAX TEMP:  67;

BURBANK        SUNNY     69  55  60 SE7       29.87S
6HR MIN TEMP:  57; 6HR MAX TEMP:  70;

ONTARIO        PTSUNNY   72  54  53 VRB5      29.87F
6HR MIN TEMP:  58; 6HR MAX TEMP:  72;

RIVERSIDE      MOSUNNY   73  56  54 NW5       29.87F
6HR MIN TEMP:  57; 6HR MAX TEMP:  73;

PALM SPRINGS   MOSUNNY  100  36  11 NW9       29.70F
6HR MIN TEMP:  74; 6HR MAX TEMP: 101;

EL CENTRO NAS  MOSUNNY   99  30   9 SE12      29.68F
6HR MIN TEMP:  72; 6HR MAX TEMP: 100;

IMPERIAL       SUNNY    101  27   7 VRB3      29.66F
6HR MIN TEMP:  74; 6HR MAX TEMP: 101;

BLYTHE         SUNNY    100  37  11 S6        29.68F
6HR MIN TEMP:  72; 6HR MAX TEMP: 100;

NEEDLES        SUNNY    105  23   5 SE9       29.68F
6HR MIN TEMP:  78; 6HR MAX TEMP: 105;

$$

NVZ020-UTZ003-241900-
SOUTHERN NEVADA-UTAH

CITY           SKY/WX    TMP DP  RH WIND       PRES   REMARKS
LAS VEGAS      MOSUNNY   98  17   5 S17G23    29.71F
6HR MIN TEMP:  79; 6HR MAX TEMP:  98;

SALT LAKE CITY MOSUNNY   82  36  19 VRB7      29.77F
6HR MIN TEMP:  60; 6HR MAX TEMP:  83;

$$

NMZ009-TXZ055-241900-
NEW MEXICO-WEST TEXAS

CITY           SKY/WX    TMP DP  RH WIND       PRES   REMARKS
ALBUQUERQUE    MOSUNNY   72  29  20 CALM      30.00F
6HR MIN TEMP:  50; 6HR MAX TEMP:  72;

EL PASO        MOSUNNY   79  39  23 S8        29.97F
6HR MIN TEMP:  58; 6HR MAX TEMP:  80;

$$


........................KEY........................
SKY/WX - SKY CONDITION/WEATHER
TMP    - TEMPERATURE IN FAHRENHEIT
DP     - DEWPOINT IN FAHRENHEIT
RH     - RELATIVE HUMIDITY IN PERCENT
WIND   - DIRECTION AND SPEED IN MILES PER HOUR (MPH)
VRB    - VARIABLE WIND DIRECTION
PRES   - MEAN SEA LEVEL PRESSURE IN INCHES OF MERCURY
         F - FALLING PRESSURE   R - RISING PRESSURE
         S - STEADY PRESSURE
VSB    - VISIBILITY IN MILES
HX     - HEAT INDEX IN FAHRENHEIT
WCI    - WIND CHILL INDEX IN FAHRENHEIT
TC     - TEMPERATURE IN CELSIUS WHICH IS ALSO KNOWN AS
         TEMPERATURE IN CENTIGRADE
AFB    - AIR FORCE BASE
         LUKE AFB IS LUKE AIR FORCE BASE
         DAVIS-MONTHAN IS DAVIS-MONTHAN AIR FORCE BASE
NAS    - NAVAL AIR STATION
         EL CENTRO NAS IS EL CENTRO NAVAL AIR STATION
N/A    - NOT AVAILABLE




USA.gov is the U.S. government's official web portal to all federal, state and local government web resources and services.